DAL917 KDCA-KDTW

Flight info

Callsign DAL917
Flight time 1h 11m
Altitude 36000
Route HORTO4 BUFFR Q178 KOZAR KLYNK3
Aircraft A320/M-SDE3FGHIRWY/LB1

Departure

Time 2026-04-22 00:51
Airport Ronald Reagan Washington National Airport (KDCA)

Arrival

Time 2026-04-22 02:03
Airport Detroit Metropolitan Wayne County Airport (KDTW)
Time Latitude Longitude Altitude Speed Heading
2026-04-22 00:37 38.85234 -77.04065 24 ft 0 kts 259°
2026-04-22 00:44 38.85235 -77.04062 24 ft 2 kts 259°
2026-04-22 00:44 38.85238 -77.04044 24 ft 2 kts 259°
2026-04-22 00:44 38.85241 -77.04024 24 ft 2 kts 259°
2026-04-22 00:44 38.85242 -77.04005 24 ft 2 kts 288°
2026-04-22 00:45 38.85234 -77.03989 24 ft 2 kts 324°
2026-04-22 00:45 38.85224 -77.03982 24 ft 0 kts 351°
2026-04-22 00:45 38.85217 -77.03982 24 ft 1 kts 356°
2026-04-22 00:45 38.85216 -77.03982 24 ft 0 kts 356°
2026-04-22 00:47 38.85226 -77.03983 24 ft 3 kts 356°
2026-04-22 00:48 38.85265 -77.03987 24 ft 8 kts 355°
2026-04-22 00:48 38.85344 -77.03996 24 ft 14 kts 355°
2026-04-22 00:48 38.85455 -77.04006 24 ft 16 kts 355°
2026-04-22 00:48 38.85570 -77.04034 24 ft 16 kts 352°
2026-04-22 00:49 38.85667 -77.04038 24 ft 12 kts 19°
2026-04-22 00:49 38.85728 -77.03974 24 ft 11 kts
2026-04-22 00:49 38.85810 -77.03982 23 ft 12 kts 355°
2026-04-22 00:49 38.85903 -77.03990 23 ft 14 kts
2026-04-22 00:50 38.85995 -77.03960 23 ft 13 kts 17°
2026-04-22 00:50 38.86081 -77.03919 23 ft 11 kts 46°
2026-04-22 00:50 38.86044 -77.03866 24 ft 13 kts 174°
2026-04-22 00:50 38.85701 -77.03831 24 ft 85 kts 175°
2026-04-22 00:51 38.84892 -77.03751 24 ft 146 kts 175°
2026-04-22 00:51 38.83802 -77.03651 454 ft 159 kts 176°
2026-04-22 00:51 38.82755 -77.03416 1201 ft 157 kts 154°
2026-04-22 00:51 38.81918 -77.02553 1936 ft 156 kts 146°
2026-04-22 00:52 38.80913 -77.02044 2306 ft 163 kts 184°
2026-04-22 00:52 38.79771 -77.02405 2681 ft 178 kts 198°
2026-04-22 00:52 38.78500 -77.02811 3010 ft 200 kts 192°
2026-04-22 00:52 38.77062 -77.03135 3424 ft 218 kts 198°
2026-04-22 00:53 38.75735 -77.04136 3842 ft 234 kts 226°
2026-04-22 00:53 38.74862 -77.05951 4444 ft 246 kts 252°
2026-04-22 00:53 38.74631 -77.08099 5280 ft 248 kts 267°
2026-04-22 00:53 38.74547 -77.10292 6198 ft 248 kts 268°
2026-04-22 00:54 38.74445 -77.12469 7103 ft 248 kts 269°
2026-04-22 00:54 38.74327 -77.14660 7942 ft 250 kts 270°
2026-04-22 00:54 38.74197 -77.16867 8741 ft 254 kts 270°
2026-04-22 00:54 38.74059 -77.19144 9550 ft 257 kts 271°
2026-04-22 00:55 38.73994 -77.21397 10332 ft 256 kts 281°
2026-04-22 00:55 38.74497 -77.23589 10826 ft 264 kts 300°
2026-04-22 00:55 38.77329 -77.26768 11805 ft 289 kts 336°
2026-04-22 00:56 38.79219 -77.27706 12556 ft 292 kts 336°
2026-04-22 00:56 38.81099 -77.28657 13276 ft 295 kts 336°
2026-04-22 00:56 38.83010 -77.29620 13971 ft 298 kts 337°
2026-04-22 00:56 38.84943 -77.30607 14636 ft 301 kts 335°
2026-04-22 00:57 38.86871 -77.31712 15283 ft 305 kts 334°
2026-04-22 00:57 38.88820 -77.32849 15914 ft 308 kts 334°
2026-04-22 00:57 38.90768 -77.33991 16532 ft 311 kts 334°
2026-04-22 00:57 38.92750 -77.35154 17144 ft 314 kts 334°
2026-04-22 00:58 38.94720 -77.36309 17726 ft 317 kts 334°
2026-04-22 00:58 38.96735 -77.37492 18281 ft 321 kts 334°
2026-04-22 00:58 38.98776 -77.38690 18834 ft 324 kts 334°
2026-04-22 00:58 39.00833 -77.39897 19406 ft 326 kts 334°
2026-04-22 00:59 39.02905 -77.41116 19940 ft 329 kts 334°
2026-04-22 00:59 39.04983 -77.42338 20458 ft 332 kts 334°
2026-04-22 00:59 39.07111 -77.43591 20981 ft 335 kts 334°
2026-04-22 00:59 39.09225 -77.44836 21500 ft 337 kts 333°
2026-04-22 01:00 39.11388 -77.46019 22006 ft 341 kts 336°
2026-04-22 01:00 39.13633 -77.47046 22493 ft 345 kts 339°
2026-04-22 01:00 39.15932 -77.47969 22957 ft 348 kts 340°
2026-04-22 01:00 39.18265 -77.48888 23428 ft 351 kts 340°
2026-04-22 01:01 39.20591 -77.49803 23895 ft 353 kts 340°
2026-04-22 01:01 39.22937 -77.50725 24354 ft 356 kts 340°
2026-04-22 01:01 39.25333 -77.51668 24829 ft 358 kts 340°
2026-04-22 01:01 39.27714 -77.52608 25279 ft 360 kts 340°
2026-04-22 01:02 39.30116 -77.53555 25716 ft 362 kts 339°
2026-04-22 01:02 39.32531 -77.54509 26133 ft 365 kts 339°
2026-04-22 01:02 39.34950 -77.55467 26536 ft 367 kts 339°
2026-04-22 01:02 39.37387 -77.56430 26930 ft 369 kts 339°
2026-04-22 01:03 39.39847 -77.57404 27320 ft 372 kts 339°
2026-04-22 01:03 39.42320 -77.58405 27702 ft 372 kts 336°
2026-04-22 01:03 39.44574 -77.59968 28014 ft 370 kts 320°
2026-04-22 01:03 39.46384 -77.62373 28357 ft 370 kts 306°
2026-04-22 01:04 39.47581 -77.65292 28700 ft 373 kts 293°
2026-04-22 01:04 39.48528 -77.68402 29066 ft 374 kts 293°
2026-04-22 01:04 39.49488 -77.71571 29385 ft 377 kts 292°
2026-04-22 01:04 39.50441 -77.74731 29709 ft 379 kts 293°
2026-04-22 01:05 39.51393 -77.77895 30044 ft 381 kts 292°
2026-04-22 01:05 39.52359 -77.81110 30365 ft 383 kts 292°
2026-04-22 01:05 39.53314 -77.84300 30668 ft 384 kts 292°
2026-04-22 01:05 39.54291 -77.87543 30944 ft 386 kts 293°
2026-04-22 01:06 39.55277 -77.90743 31226 ft 388 kts 293°
2026-04-22 01:06 39.56276 -77.93974 31514 ft 389 kts 293°
2026-04-22 01:06 39.57293 -77.97270 31774 ft 391 kts 293°
2026-04-22 01:06 39.58295 -78.00530 32022 ft 392 kts 293°
2026-04-22 01:07 39.59303 -78.03814 32201 ft 395 kts 293°
2026-04-22 01:07 39.60310 -78.07104 32424 ft 397 kts 293°
2026-04-22 01:07 39.61326 -78.10429 32732 ft 396 kts 293°
2026-04-22 01:07 39.62336 -78.13738 33052 ft 395 kts 293°
2026-04-22 01:08 39.63337 -78.17025 33361 ft 393 kts 293°
2026-04-22 01:08 39.64341 -78.20325 33676 ft 392 kts 293°
2026-04-22 01:08 39.65336 -78.23597 33973 ft 391 kts 293°
2026-04-22 01:08 39.66331 -78.26875 34228 ft 390 kts 293°
2026-04-22 01:09 39.67319 -78.30131 34478 ft 390 kts 293°
2026-04-22 01:09 39.68304 -78.33385 34665 ft 390 kts 293°
2026-04-22 01:09 39.69293 -78.36649 34813 ft 391 kts 293°
2026-04-22 01:09 39.70286 -78.39941 34937 ft 393 kts 293°
2026-04-22 01:10 39.71283 -78.43247 35093 ft 394 kts 293°
2026-04-22 01:10 39.72280 -78.46556 35252 ft 394 kts 293°
2026-04-22 01:10 39.73279 -78.49873 35380 ft 395 kts 293°
2026-04-22 01:10 39.74274 -78.53182 35497 ft 396 kts 293°
2026-04-22 01:11 39.75279 -78.56529 35623 ft 397 kts 292°
2026-04-22 01:11 39.76274 -78.59847 35735 ft 398 kts 293°
2026-04-22 01:11 39.77274 -78.63187 35859 ft 399 kts 293°
2026-04-22 01:11 39.78273 -78.66529 35991 ft 399 kts 292°
2026-04-22 01:12 39.79279 -78.69894 36096 ft 400 kts 292°
2026-04-22 01:12 39.80290 -78.73288 36112 ft 402 kts 292°
2026-04-22 01:12 39.82288 -78.79998 36109 ft 401 kts 292°
2026-04-22 01:13 39.84297 -78.86764 36118 ft 400 kts 292°
2026-04-22 01:13 39.86292 -78.93500 36116 ft 400 kts 292°
2026-04-22 01:14 39.88288 -79.00256 36116 ft 400 kts 292°
2026-04-22 01:14 39.90263 -79.06952 36117 ft 399 kts 292°
2026-04-22 01:15 39.92239 -79.13688 36110 ft 400 kts 292°
2026-04-22 01:15 39.94219 -79.20440 36101 ft 400 kts 292°
2026-04-22 01:16 39.96194 -79.27211 36104 ft 400 kts 292°
2026-04-22 01:16 39.98169 -79.33976 36099 ft 400 kts 292°
2026-04-22 01:17 40.00416 -79.40549 36092 ft 399 kts 297°
2026-04-22 01:17 40.03149 -79.46815 36092 ft 399 kts 303°
2026-04-22 01:18 40.06213 -79.52852 36096 ft 398 kts 304°
2026-04-22 01:18 40.09275 -79.58830 36092 ft 398 kts 304°
2026-04-22 01:19 40.12349 -79.64835 36085 ft 398 kts 304°
2026-04-22 01:19 40.15424 -79.70858 36079 ft 398 kts 303°
2026-04-22 01:20 40.18485 -79.76861 36078 ft 398 kts 303°
2026-04-22 01:20 40.21546 -79.82871 36074 ft 398 kts 303°
2026-04-22 01:21 40.24598 -79.88881 36071 ft 398 kts 303°
2026-04-22 01:21 40.27644 -79.94893 36070 ft 399 kts 303°
2026-04-22 01:22 40.30710 -80.00954 36065 ft 398 kts 303°
2026-04-22 01:22 40.33740 -80.06953 36062 ft 397 kts 303°
2026-04-22 01:23 40.36784 -80.12980 36065 ft 398 kts 303°
2026-04-22 01:23 40.39821 -80.19015 36062 ft 397 kts 303°
2026-04-22 01:24 40.42865 -80.25085 36060 ft 398 kts 303°
2026-04-22 01:24 40.45892 -80.31131 36059 ft 397 kts 303°
2026-04-22 01:25 40.48906 -80.37151 36059 ft 398 kts 303°
2026-04-22 01:25 40.51939 -80.43222 36056 ft 397 kts 303°
2026-04-22 01:26 40.54958 -80.49287 36052 ft 397 kts 303°
2026-04-22 01:26 40.57978 -80.55365 36054 ft 397 kts 303°
2026-04-22 01:27 40.60741 -80.61616 36047 ft 397 kts 298°
2026-04-22 01:27 40.63259 -80.68038 36044 ft 398 kts 297°
2026-04-22 01:28 40.65782 -80.74513 36048 ft 398 kts 297°
2026-04-22 01:28 40.68300 -80.80998 36049 ft 398 kts 297°
2026-04-22 01:29 40.70802 -80.87457 36053 ft 398 kts 297°
2026-04-22 01:29 40.73307 -80.93938 36048 ft 397 kts 297°
2026-04-22 01:30 40.75794 -81.00388 36050 ft 397 kts 297°
2026-04-22 01:30 40.78287 -81.06867 36043 ft 397 kts 297°
2026-04-22 01:31 40.80778 -81.13356 36043 ft 397 kts 297°
2026-04-22 01:31 40.83255 -81.19820 36034 ft 396 kts 297°
2026-04-22 01:32 40.85735 -81.26307 36030 ft 396 kts 297°
2026-04-22 01:32 40.88206 -81.32787 36024 ft 396 kts 297°
2026-04-22 01:33 40.90669 -81.39262 36028 ft 396 kts 297°
2026-04-22 01:33 40.93145 -81.45787 36030 ft 395 kts 297°
2026-04-22 01:34 40.95595 -81.52252 36031 ft 396 kts 297°
2026-04-22 01:34 40.98043 -81.58732 36029 ft 395 kts 297°
2026-04-22 01:35 41.00496 -81.65234 36024 ft 395 kts 297°
2026-04-22 01:35 41.02970 -81.71807 35754 ft 396 kts 296°
2026-04-22 01:36 41.04185 -81.75042 35349 ft 393 kts 296°
2026-04-22 01:36 41.05393 -81.78261 34783 ft 392 kts 296°
2026-04-22 01:36 41.06595 -81.81470 34074 ft 392 kts 296°
2026-04-22 01:36 41.07798 -81.84681 33315 ft 392 kts 296°
2026-04-22 01:37 41.08996 -81.87886 32564 ft 392 kts 296°
2026-04-22 01:37 41.10214 -81.91148 31809 ft 392 kts 296°
2026-04-22 01:37 41.11291 -81.94038 31365 ft 386 kts 296°
2026-04-22 01:37 41.12461 -81.97177 30908 ft 382 kts 296°
2026-04-22 01:38 41.13620 -82.00291 30446 ft 377 kts 296°
2026-04-22 01:38 41.14775 -82.03398 29979 ft 373 kts 296°
2026-04-22 01:38 41.15914 -82.06461 29501 ft 369 kts 296°
2026-04-22 01:38 41.17033 -82.09482 29027 ft 366 kts 296°
2026-04-22 01:39 41.18145 -82.12489 28553 ft 363 kts 296°
2026-04-22 01:39 41.19249 -82.15474 28081 ft 360 kts 295°
2026-04-22 01:39 41.20340 -82.18423 27616 ft 356 kts 296°
2026-04-22 01:39 41.21470 -82.21339 27148 ft 353 kts 300°
2026-04-22 01:40 41.22861 -82.23994 26678 ft 351 kts 308°
2026-04-22 01:40 41.24515 -82.26363 26213 ft 349 kts 315°
2026-04-22 01:40 41.26356 -82.28437 25752 ft 348 kts 319°
2026-04-22 01:40 41.28241 -82.30427 25284 ft 345 kts 319°
2026-04-22 01:41 41.30122 -82.32400 24822 ft 342 kts 319°
2026-04-22 01:41 41.31963 -82.34331 24374 ft 340 kts 319°
2026-04-22 01:41 41.33823 -82.36280 23909 ft 337 kts 319°
2026-04-22 01:41 41.35638 -82.38185 23449 ft 335 kts 319°
2026-04-22 01:42 41.37470 -82.40109 23000 ft 333 kts 319°
2026-04-22 01:42 41.39265 -82.41998 22550 ft 331 kts 319°
2026-04-22 01:42 41.41076 -82.43907 22101 ft 330 kts 319°
2026-04-22 01:42 41.42867 -82.45795 21651 ft 329 kts 319°
2026-04-22 01:43 41.44643 -82.47666 21192 ft 327 kts 319°
2026-04-22 01:43 41.46418 -82.49535 20743 ft 326 kts 319°
2026-04-22 01:43 41.48185 -82.51402 20297 ft 324 kts 319°
2026-04-22 01:43 41.49947 -82.53265 19851 ft 323 kts 319°
2026-04-22 01:44 41.51700 -82.55116 19394 ft 322 kts 320°
2026-04-22 01:44 41.53451 -82.56963 18952 ft 320 kts 319°
2026-04-22 01:44 41.55174 -82.58783 18525 ft 319 kts 320°
2026-04-22 01:44 41.56904 -82.60615 18091 ft 318 kts 319°
2026-04-22 01:45 41.58631 -82.62444 17620 ft 317 kts 319°
2026-04-22 01:45 41.60367 -82.64284 17171 ft 316 kts 319°
2026-04-22 01:45 41.62079 -82.66102 16728 ft 315 kts 319°
2026-04-22 01:45 41.63787 -82.67915 16288 ft 315 kts 319°
2026-04-22 01:46 41.65503 -82.69740 15832 ft 314 kts 318°
2026-04-22 01:46 41.67208 -82.71555 15380 ft 313 kts 318°
2026-04-22 01:46 41.68910 -82.73366 14939 ft 312 kts 318°
2026-04-22 01:46 41.70582 -82.75147 14505 ft 311 kts 318°
2026-04-22 01:47 41.72269 -82.76945 14070 ft 309 kts 318°
2026-04-22 01:47 41.73926 -82.78737 13883 ft 299 kts 316°
2026-04-22 01:47 41.75413 -82.80576 13700 ft 288 kts 313°
2026-04-22 01:47 41.76786 -82.82510 13272 ft 286 kts 310°
2026-04-22 01:48 41.78124 -82.84460 12870 ft 284 kts 310°
2026-04-22 01:48 41.79443 -82.86392 12482 ft 281 kts 310°
2026-04-22 01:48 41.80750 -82.88310 12102 ft 279 kts 310°
2026-04-22 01:48 41.82053 -82.90220 11706 ft 277 kts 311°
2026-04-22 01:49 41.83586 -82.91785 11295 ft 281 kts 327°
2026-04-22 01:49 41.85359 -82.92893 10897 ft 281 kts 332°
2026-04-22 01:49 41.87163 -82.93898 10491 ft 279 kts 332°
2026-04-22 01:49 41.88948 -82.94867 10115 ft 277 kts 333°
2026-04-22 01:50 41.90722 -82.95824 9898 ft 271 kts 333°
2026-04-22 01:50 41.92472 -82.96770 9495 ft 271 kts 333°
2026-04-22 01:50 41.94203 -82.97716 9084 ft 271 kts 333°
2026-04-22 01:50 41.95939 -82.98669 8713 ft 269 kts 332°
2026-04-22 01:51 41.97663 -82.99611 8368 ft 266 kts 333°
2026-04-22 01:51 41.99363 -83.00539 8001 ft 263 kts 333°
2026-04-22 01:51 42.01069 -83.01472 7591 ft 261 kts 333°
2026-04-22 01:51 42.02746 -83.02393 7203 ft 259 kts 333°
2026-04-22 01:52 42.04400 -83.03301 6851 ft 257 kts 333°
2026-04-22 01:52 42.06055 -83.04215 6489 ft 256 kts 333°
2026-04-22 01:52 42.07670 -83.05113 6143 ft 254 kts 333°
2026-04-22 01:52 42.09316 -83.06033 5987 ft 253 kts 333°
2026-04-22 01:53 42.10938 -83.06941 5984 ft 255 kts 333°
2026-04-22 01:53 42.12578 -83.07863 5982 ft 255 kts 333°
2026-04-22 01:53 42.14220 -83.08791 5980 ft 255 kts 333°
2026-04-22 01:53 42.15868 -83.09721 5980 ft 255 kts 333°
2026-04-22 01:54 42.17504 -83.10645 5980 ft 255 kts 333°
2026-04-22 01:54 42.19082 -83.11540 5979 ft 256 kts 333°
2026-04-22 01:54 42.20777 -83.12504 5979 ft 255 kts 333°
2026-04-22 01:54 42.22403 -83.13427 5933 ft 253 kts 333°
2026-04-22 01:55 42.24028 -83.14352 5573 ft 253 kts 333°
2026-04-22 01:55 42.25656 -83.15248 5158 ft 255 kts 338°
2026-04-22 01:55 42.27459 -83.15456 4738 ft 267 kts
2026-04-22 01:55 42.29176 -83.14495 4385 ft 276 kts 27°
2026-04-22 01:56 42.30709 -83.13036 4164 ft 264 kts 32°
2026-04-22 01:56 42.32151 -83.11567 3922 ft 250 kts 27°
2026-04-22 01:56 42.33676 -83.10778 3698 ft 228 kts 356°
2026-04-22 01:56 42.35131 -83.11171 3496 ft 207 kts 323°
2026-04-22 01:57 42.36175 -83.12425 3223 ft 198 kts 306°
2026-04-22 01:57 42.37030 -83.13869 2998 ft 196 kts 303°
2026-04-22 01:57 42.37857 -83.15361 2980 ft 197 kts 301°
2026-04-22 01:57 42.38341 -83.17027 2956 ft 194 kts 271°
2026-04-22 01:58 42.37968 -83.18784 2975 ft 198 kts 241°
2026-04-22 01:58 42.37128 -83.20274 2981 ft 199 kts 234°
2026-04-22 01:58 42.36216 -83.21667 2976 ft 200 kts 233°
2026-04-22 01:58 42.35250 -83.23051 2972 ft 202 kts 228°
2026-04-22 01:59 42.34165 -83.24229 2962 ft 197 kts 221°
2026-04-22 01:59 42.33051 -83.25192 2942 ft 184 kts 218°
2026-04-22 01:59 42.31963 -83.26038 2851 ft 175 kts 216°
2026-04-22 01:59 42.30904 -83.26827 2649 ft 176 kts 216°
2026-04-22 02:00 42.29855 -83.27594 2389 ft 164 kts 215°
2026-04-22 02:00 42.28897 -83.28291 2176 ft 149 kts 216°
2026-04-22 02:00 42.28023 -83.28931 1951 ft 135 kts 216°
2026-04-22 02:00 42.27216 -83.29529 1774 ft 131 kts 217°
2026-04-22 02:01 42.26419 -83.30120 1618 ft 131 kts 216°
2026-04-22 02:01 42.25615 -83.30714 1457 ft 130 kts 216°
2026-04-22 02:01 42.24822 -83.31298 1292 ft 130 kts 214°
2026-04-22 02:01 42.24028 -83.31883 1121 ft 130 kts 214°
2026-04-22 02:02 42.23235 -83.32468 944 ft 130 kts 213°
2026-04-22 02:02 42.22443 -83.33050 769 ft 129 kts 213°
2026-04-22 02:02 42.21656 -83.33637 640 ft 127 kts 212°
2026-04-22 02:02 42.20982 -83.34138 636 ft 86 kts 209°
2026-04-22 02:03 42.20578 -83.34434 636 ft 55 kts 208°
2026-04-22 02:03 42.20265 -83.34663 636 ft 33 kts 209°
2026-04-22 02:03 42.20186 -83.34813 635 ft 18 kts 270°
2026-04-22 02:03 42.20182 -83.34975 635 ft 14 kts 267°
2026-04-22 02:04 42.20176 -83.35263 637 ft 15 kts 269°
2026-04-22 02:04 42.20174 -83.35411 639 ft 17 kts 269°
2026-04-22 02:04 42.20171 -83.35580 639 ft 18 kts 269°
2026-04-22 02:05 42.20168 -83.35753 639 ft 18 kts 269°
2026-04-22 02:05 42.20165 -83.35932 639 ft 19 kts 269°
2026-04-22 02:05 42.20162 -83.36115 639 ft 19 kts 271°
2026-04-22 02:05 42.20182 -83.36297 639 ft 19 kts 281°
2026-04-22 02:06 42.20203 -83.36444 639 ft 15 kts 281°
2026-04-22 02:06 42.20274 -83.36510 639 ft 15 kts 24°
2026-04-22 02:06 42.20375 -83.36436 640 ft 18 kts 29°
2026-04-22 02:06 42.20491 -83.36350 642 ft 20 kts 28°
2026-04-22 02:07 42.20626 -83.36252 642 ft 22 kts 28°
2026-04-22 02:07 42.20766 -83.36149 642 ft 22 kts 28°
2026-04-22 02:07 42.20907 -83.36044 642 ft 23 kts 29°
2026-04-22 02:07 42.21052 -83.35938 642 ft 23 kts 29°
2026-04-22 02:08 42.21196 -83.35832 642 ft 23 kts 28°
2026-04-22 02:08 42.21339 -83.35726 642 ft 23 kts 28°
2026-04-22 02:08 42.21478 -83.35626 642 ft 21 kts 28°
2026-04-22 02:08 42.21547 -83.35461 641 ft 21 kts 90°
2026-04-22 02:09 42.21550 -83.35256 639 ft 16 kts 90°
2026-04-22 02:09 42.21486 -83.35212 639 ft 12 kts 178°
2026-04-22 02:09 42.21425 -83.35259 639 ft 9 kts 268°
2026-04-22 02:09 42.21435 -83.35296 639 ft 0 kts 298°